Torna al catalogo

COSMOS 839 DEB

AttivoUNKNOWN
NORAD 15523·DEBRIS·🇷🇺 Russia

Lanciato Jul 8, 1976 da Plesetsk Cosmodrome

Loading…

Prossimi Passaggi (prossime 24 ore)

TLE

AggiornatoSource: Space-Track

Epoca: Sep 14, 2026, 11:07 UTC

1 15523U 76067BH  26257.46320755 -.00000039  00000-0  44072-4 0  9990
2 15523  65.9289 280.2736 0746551 194.4160 242.6367 12.47646282666974

Traccia COSMOS 839 DEB in tempo reale con AllMySat

Download on the App Store